This is the latest recevied weather packets stored in our database for station/object WA0GMH-1. If no packets are shown the sender has not sent any weather packets the latest 10 day(s).
| Time | Temp. | Humidity | Pressure | Rain* | Wind** | Luminosity | Snow |
|---|---|---|---|---|---|---|---|
| 1778120236 | 11.11° C | 68% | 1014.2 hPa | 0 mm | - | - | - |
| 1778119834 | 11.67° C | 68% | 1014.2 hPa | 0 mm | - | - | - |
| 1778119431 | 11.67° C | 67% | 1014.3 hPa | 0 mm | - | - | - |
| 1778119029 | 12.22° C | 67% | 1014.4 hPa | 0 mm | - | - | - |
| 1778118626 | 12.78° C | 65% | 1014.3 hPa | 0 mm | - | - | - |
| 1778118225 | 12.78° C | 62% | 1014.4 hPa | 0 mm | - | - | - |
| 1778117822 | 13.33° C | 62% | 1014.4 hPa | 0 mm | - | - | - |
| 1778117420 | 13.33° C | 61% | 1014.4 hPa | 0 mm | - | - | - |
| 1778117017 | 13.89° C | 61% | 1014.3 hPa | 0 mm | - | - | - |
| 1778116616 | 13.89° C | 61% | 1014.3 hPa | 0 mm | - | - | - |
| 1778116213 | 14.44° C | 60% | 1014.5 hPa | 0 mm | - | - | - |
| 1778115811 | 14.44° C | 60% | 1014.4 hPa | 0 mm | - | - | - |
| 1778115409 | 14.44° C | 60% | 1014.5 hPa | 0 mm | - | - | - |
| 1778115007 | 15° C | 59% | 1014.6 hPa | 0 mm | - | - | - |
| 1778114604 | 15° C | 59% | 1014.8 hPa | 0 mm | - | - | - |
| 1778114202 | 15.56° C | 59% | 1014.8 hPa | 0 mm | - | - | - |
| 1778113799 | 15.56° C | 59% | 1014.7 hPa | 0 mm | - | - | - |
| 1778113398 | 15.56° C | 59% | 1014.7 hPa | 0 mm | - | - | - |
| 1778112995 | 15.56° C | 59% | 1014.7 hPa | 0 mm | - | - | - |
| 1778112593 | 16.11° C | 59% | 1014.7 hPa | 0 mm | - | - | - |
| 1778112191 | 16.11° C | 59% | 1014.7 hPa | 0 mm | - | - | - |
| 1778111789 | 16.11° C | 57% | 1014.8 hPa | 0 mm | - | - | - |
| 1778111386 | 16.67° C | 57% | 1014.9 hPa | 0 mm | - | - | - |
| 1778110984 | 16.67° C | 57% | 1015.1 hPa | 0 mm | - | - | - |
| 1778110582 | 17.22° C | 57% | 1014.9 hPa | 0 mm | - | - | - |
* Rain since midnight (hover to see other rain measurements)
** Current wind speed in m/s (hover to see current wind gust speed)